Regional Weather Roundup
Issued by NWS Midland/Odessa, TX

Skip options and go directly to product.
Home | Oldest Version | Previous Version | Current Version | All | Text Only | Save Text | Print | Product List | Glossary On

Skip product version selection by date and time.   
256
ASUS44 KMAF 251601
RWRMAF
MIDLAND AREA WEATHER ROUNDUP
NATIONAL WEATHER SERVICE MIDLAND TX
1100 AM CDT SAT APR 25 2015

...IN SOUTHWEST TEXAS AND SOUTHEAST NEW MEXICO...

CITY           SKY/WX    TMP DP  RH WIND       PRES   REMARKS
ALPINE         SUNNY     67  29  23 W13       30.08S
ANDREWS        FAIR      71  32  24 W14G22    29.92S
ARTESIA        SUNNY     70  30  23 W12G22    29.93R
BIG SPRING     SUNNY     74  34  23 W17       29.91S
CARLSBAD       SUNNY     73  31  21 W21G26    29.91S
DRYDEN           N/A     79  44  28 SW7       29.91F
FORT STOCKTON  SUNNY     74  32  21 W15G25    29.96S
GUAD PASS      NOT AVBL
HOBBS          SUNNY     68  32  26 W16G22    29.93S
MARFA          SUNNY     64  30  27 W10       30.07S
MIDLAND AIRPK  SUNNY     74  33  22 W16       29.91F
MIDLAND INTL   SUNNY     75  34  22 W22G29    29.91S
ODESSA         SUNNY     74  30  19 W24G30    29.92S
PECOS          SUNNY     74  34  23 W14       29.93F
PRESIDIO       FAIR      70  30  22 E3        29.99F
SEMINOLE       SUNNY     70  33  25 W21G29    29.92S
SNYDER         SUNNY     68  44  41 W14       29.86S
WINK           SUNNY     73  30  20 W10       29.91F
$$
...OTHER STATIONS IN TEXAS...

CITY           SKY/WX    TMP DP  RH WIND       PRES   REMARKS
ABILENE        SUNNY     76  42  29 W13       29.83R
AMARILLO       SUNNY     71  33  24 W13       29.78S
AUSTIN         MOSUNNY   82  68  62 NW8       29.79F
BROWNSVILLE    MOSUNNY   87  77  72 S18       29.76R
CORPUS CHRISTI CLOUDY    74  72  93 NE9       29.80F
DALLAS FTW     MOSUNNY   76  52  43 W13       29.72S
DEL RIO        SUNNY     78  55  44 W13       29.86F
EL PASO        MOSUNNY   66  29  24 W9        29.98F
HOUSTON INT    CLOUDY    70  67  90 S7        29.76F THUNDER
LUBBOCK        SUNNY     71  37  28 W20G26    29.83S
SAN ANGELO     SUNNY     77  40  26 W12       29.87S
SAN ANTONIO    MOSUNNY   81  71  71 NW7       29.82F
WACO           SUNNY     81  55  40 W9        29.77S
WICHITA FALLS  NOT AVBL
$$
...OTHER LOCATIONS IN NEW MEXICO...

CITY           SKY/WX    TMP DP  RH WIND       PRES   REMARKS
ALAMAGORDO     SUNNY     64  32  29 SW10      29.98S
ALBUQUERQUE    MOSUNNY   55  36  48 VRB5      29.97F
CANNON AFB     SUNNY     64  35  34 W21       29.85F
CLOVIS         SUNNY     64  36  34 W20G29    29.85S
HOLLOMAN AFB   SUNNY     65  32  29 S5        29.96S
ROSWELL        SUNNY     69  32  25 W10       29.90F
RUIDOSO        SUNNY     52  27  37 W16G22    30.02F
SANTA FE       SUNNY     53  31  42 W10       29.95F
TRUTH OR CONSE SUNNY     60  32  34 S6        29.97F
TUCUMCARI      SUNNY     69  33  26 W17       29.81S
$$

USA.gov is the U.S. government's official web portal to all federal, state and local government web resources and services.